Weather History for Paris / Charles De Gaulle, France

Change the Weather History Date:

Saturday, December 31, 2011

  Actual Average Record
Temperature  
Mean Temperature 48 °F -  
Max Temperature 53 °F 42 °F 55 °F (2006)
Min Temperature 42 °F 34 °F 15 °F (1996)
Degree Days  
Heating Degree Days 18    
Moisture  
Dew Point 50 °F    
Average Humidity 97    
Maximum Humidity 100    
Minimum Humidity 94    
Precipitation  
Precipitation 0.00 in - - ()
Sea Level Pressure  
Sea Level Pressure 29.97 in    
Wind  
Wind Speed 10 mph ()    
Max Wind Speed 16 mph    
Max Gust Speed -    
Visibility 4.6 miles    
Events Fog , Rain    
Averages and records for this station are not official NWS values.
T = Trace of Precipitation, MM = Missing Value Source: Averaged Metar Reports

Daily Weather History Graph

Daily Weather History Graph

Search for Another Location

Airport:

Trip Planner

Search our weather history database for the weather conditions in past years. The results will help you decide how hot, cold, wet, or windy it might be!

Date:

Astronomy

Dec. 31, 2011 Rise Set
Actual Time 8:44 AM CET 5:01 PM CET
Civil Twilight 8:06 AM CET 5:38 PM CET
Nautical Twilight 7:26 AM CET 6:19 PM CET
Astronomical Twilight 6:47 AM CET 6:57 PM CET
Moon 11:44 AM CET (12/31) No Moon Set
Length of Visible Light 9h 32m
Length of Day
8h 17m
Waxing Crescent, 42% of the Moon is Illuminated
Dec 31
Waxing Crescent
Jan 1
First Quarter
Jan 9
Full
Jan 16
Last Quarter
Jan 23
New

Hourly Weather History & Observations

Time (CET) Temp. Windchill Dew Point Humidity Pressure Visibility Wind Dir Wind Speed Gust Speed Precip Events Conditions
12:00 AM 42.8 °F 36.6 °F 42.8 °F 100% 29.98 in 1.2 mi South 11.5 mph - N/A   Light Drizzle
12:30 AM 42.8 °F 37.5 °F 42.8 °F 100% 29.95 in 1.2 mi South 9.2 mph - N/A   Light Drizzle
1:00 AM 44.6 °F 40.2 °F 44.6 °F 100% 29.95 in 1.2 mi South 8.1 mph - N/A   Light Drizzle
1:30 AM 44.6 °F 39.7 °F 44.6 °F 100% 29.92 in 1.6 mi South 9.2 mph - N/A   Light Drizzle
2:00 AM 44.6 °F 39.7 °F 44.6 °F 100% 29.92 in 1.6 mi SSW 9.2 mph - N/A   Light Drizzle
2:30 AM 46.4 °F 41.9 °F 46.4 °F 100% 29.92 in 0.5 mi SW 9.2 mph - N/A Fog Light Drizzle
3:00 AM 48.2 °F - 48.2 °F 100% 29.92 in 2.8 mi WSW 11.5 mph - N/A   Mostly Cloudy
3:30 AM 50.0 °F - 50.0 °F 100% 29.92 in 6.2 mi West 11.5 mph - N/A   Overcast
4:00 AM 50.0 °F - 50.0 °F 100% 29.92 in 1.9 mi West 13.8 mph - N/A   Light Drizzle
4:30 AM 50.0 °F - 50.0 °F 100% 29.92 in 3.7 mi West 11.5 mph - N/A   Light Drizzle
5:00 AM 50.0 °F - 50.0 °F 100% 29.92 in 5.6 mi West 13.8 mph - N/A   Light Drizzle
5:30 AM 51.8 °F - 50.0 °F 94% 29.92 in 5.6 mi West 13.8 mph - N/A   Light Drizzle
6:00 AM 51.8 °F - 50.0 °F 94% 29.92 in 5.0 mi West 13.8 mph - N/A   Light Drizzle
6:30 AM 51.8 °F - 50.0 °F 94% 29.92 in 2.5 mi West 11.5 mph - N/A   Light Drizzle
7:00 AM 51.8 °F - 50.0 °F 94% 29.95 in 6.2 mi WSW 10.4 mph - N/A   Light Drizzle
7:30 AM 51.8 °F - 50.0 °F 94% 29.95 in 3.1 mi WSW 10.4 mph - N/A   Light Drizzle
8:00 AM 51.8 °F - 51.8 °F 100% 29.95 in 3.7 mi WSW 9.2 mph - N/A   Light Drizzle
8:30 AM 51.8 °F - 51.8 °F 100% 29.98 in 4.3 mi West 8.1 mph - N/A   Light Drizzle
9:00 AM 51.8 °F - 51.8 °F 100% 29.98 in 1.9 mi WSW 11.5 mph - N/A   Light Drizzle
9:30 AM 51.8 °F - 51.8 °F 100% 29.98 in 6.2 mi WSW 11.5 mph - N/A   Light Drizzle
10:00 AM 51.8 °F - 51.8 °F 100% 29.98 in 6.2 mi West 11.5 mph - N/A   Mostly Cloudy
10:30 AM 51.8 °F - 50.0 °F 94% 29.98 in 6.2 mi West 13.8 mph - N/A   Mostly Cloudy
11:00 AM 51.8 °F - 50.0 °F 94% 30.01 in 6.2 mi West 12.7 mph - N/A   Mostly Cloudy
11:30 AM 51.8 °F - 51.8 °F 100% 30.01 in 6.2 mi West 12.7 mph - N/A Rain Light Rain
12:00 PM 53.6 °F - 51.8 °F 94% 29.98 in 6.2 mi West 13.8 mph - N/A Rain Light Rain
12:30 PM 53.6 °F - 51.8 °F 94% 29.98 in 6.2 mi West 16.1 mph - N/A   Mostly Cloudy
1:00 PM 53.6 °F - 51.8 °F 94% 29.98 in 6.2 mi West 16.1 mph - N/A   Mostly Cloudy
1:30 PM 53.6 °F - 51.8 °F 94% 29.98 in 6.2 mi West 12.7 mph - N/A Rain Light Rain
2:00 PM 53.6 °F - 51.8 °F 94% 29.98 in 6.2 mi West 12.7 mph - N/A   Mostly Cloudy
2:30 PM 53.6 °F - 51.8 °F 94% 29.98 in 3.1 mi West 11.5 mph - N/A   Light Drizzle
3:00 PM 53.6 °F - 51.8 °F 94% 29.98 in 6.2 mi WSW 11.5 mph - N/A   Mostly Cloudy
3:30 PM 53.6 °F - 51.8 °F 94% 29.98 in 6.2 mi WSW 11.5 mph - N/A   Light Drizzle
4:00 PM 53.6 °F - 51.8 °F 94% 29.98 in 3.7 mi WSW 12.7 mph - N/A   Light Drizzle
4:30 PM 53.6 °F - 51.8 °F 94% 29.98 in 4.3 mi WSW 11.5 mph - N/A   Light Drizzle
5:00 PM 53.6 °F - 51.8 °F 94% 29.98 in 6.2 mi WSW 11.5 mph - N/A   Mostly Cloudy
5:30 PM 53.6 °F - 51.8 °F 94% 29.98 in 6.2 mi WSW 12.7 mph - N/A   Mostly Cloudy
6:00 PM 53.6 °F - 51.8 °F 94% 30.01 in 6.2 mi WSW 11.5 mph - N/A   Mostly Cloudy
6:30 PM 53.6 °F - 51.8 °F 94% 30.01 in 6.2 mi WSW 12.7 mph - N/A   Mostly Cloudy
7:00 PM 53.6 °F - 51.8 °F 94% 30.01 in 6.2 mi WSW 13.8 mph - N/A   Light Drizzle
7:30 PM 53.6 °F - 51.8 °F 94% 30.01 in 6.2 mi SW 9.2 mph - N/A   Mostly Cloudy
8:00 PM 53.6 °F - 51.8 °F 94% 30.01 in 6.2 mi SW 12.7 mph - N/A   Mostly Cloudy
8:30 PM 53.6 °F - 51.8 °F 94% 30.01 in 6.2 mi SW 11.5 mph - N/A   Mostly Cloudy
9:00 PM 53.6 °F - 51.8 °F 94% 30.01 in 6.2 mi SW 12.7 mph - N/A   Light Drizzle
9:30 PM 53.6 °F - 53.6 °F 100% 30.01 in 5.0 mi SW 11.5 mph - N/A   Light Drizzle
10:00 PM 53.6 °F - 53.6 °F 100% 30.01 in 3.1 mi SW 11.5 mph - N/A Rain Light Rain
10:30 PM 53.6 °F - 53.6 °F 100% 30.01 in 1.9 mi SW 9.2 mph - N/A Rain Light Rain
11:00 PM 53.6 °F - 51.8 °F 94% 30.01 in 6.2 mi WSW 11.5 mph - N/A   Mostly Cloudy
11:30 PM 53.6 °F - 51.8 °F 94% 30.01 in 5.0 mi WSW 12.7 mph - N/A   Light Drizzle